Simultaneous Nadir Overpasses (SNOs) Predictions

Prediction of SNOs between GOES-15 and NOAA-20 Satellite Orbit:

Table of predicted SNOs for the next 14.0 days since TLE Epoch: 1/7/2023
Index Date Time (GOES-15) GOES-15 Lat,Lon NOAA-20 Lat,Lon Distance(km) Time Diff (sec)
1 01/07/2023 21:49:38 -0.01,-127.89 0.28,-126.55 152.81 80
2 01/09/2023 10:11:26 0.01,-127.99 0.90,-131.82 436.86 80
3 01/10/2023 09:55:23 0.01,-128.01 -0.16,-127.30 82.00 80
4 01/12/2023 21:58:35 -0.01,-128.00 0.00,-128.07 8.29 80
5 01/15/2023 09:58:59 0.01,-128.11 0.17,-128.81 79.99 80
6 01/16/2023 09:42:55 0.01,-128.13 -0.84,-124.28 438.16 80
7 01/17/2023 22:04:52 -0.01,-128.08 -0.32,-129.59 171.34 80
8 01/18/2023 21:43:28 -0.01,-128.09 0.69,-125.06 346.04 80
9 01/20/2023 10:05:16 0.01,-128.16 0.47,-130.33 246.53 80
